| time (UTC) | temp F | wind direction | speed MPH | gust MPH | rain 1hr in | rain 24hr in | rain mn in | humidity % | barometer mb |
| 20260831050945 | 57 | 100 | 0.0 | 11.0 | 0.00 | 0.00 | 0.00 | 97 | 1009.8 |
| 20260831050445 | 57 | 98 | 0.0 | 11.0 | 0.00 | 0.00 | 0.00 | 97 | 1010.0 |
| 20260831045945 | 57 | 98 | 0.0 | 11.0 | 0.00 | 0.00 | 0.00 | 97 | 1009.7 |
| 20260831044928 | 57 | 92 | 0.0 | 11.0 | 0.00 | 0.00 | 0.00 | 96 | 1009.8 |
| 20260831044428 | 57 | 92 | 1.0 | 11.0 | 0.00 | 0.00 | 0.00 | 96 | 1009.6 |
| 20260831043927 | 57 | 104 | 1.0 | 11.0 | 0.00 | 0.00 | 0.00 | 96 | 1009.5 |
| 20260831043427 | 56 | 112 | 0.0 | 11.0 | 0.00 | 0.00 | 0.00 | 96 | 1009.6 |
| 20260831042926 | 56 | 112 | 0.0 | 11.0 | 0.00 | 0.00 | 0.00 | 96 | 1009.8 |
| 20260831042427 | 56 | 111 | 0.0 | 11.0 | 0.00 | 0.00 | 0.00 | 96 | 1009.8 |
| 20260831041926 | 56 | 135 | 0.0 | 11.0 | 0.00 | 0.00 | 0.00 | 96 | 1009.8 |
| 20260831041426 | 56 | 135 | 0.0 | 11.0 | 0.00 | 0.00 | 0.00 | 96 | 1009.7 |
| 20260831040408 | 56 | 230 | 0.0 | 11.0 | 0.00 | 0.00 | 0.00 | 96 | 1009.5 |
| 20260831035908 | 56 | 230 | 0.0 | 11.0 | 0.00 | 0.00 | 0.00 | 96 | 1009.4 |
| 20260831034851 | 56 | 230 | 0.0 | 11.0 | 0.00 | 0.00 | 0.00 | 96 | 1009.5 |
| 20260831034352 | 56 | 230 | 0.0 | 11.0 | 0.00 | 0.00 | 0.00 | 95 | 1009.3 |
| 20260831033850 | 56 | 230 | 0.0 | 11.0 | 0.00 | 0.00 | 0.00 | 95 | 1009.4 |
| 20260831032835 | 56 | 230 | 0.0 | 11.0 | 0.00 | 0.00 | 0.00 | 95 | 1009.4 |
| 20260831032335 | 56 | 230 | 0.0 | 11.0 | 0.00 | 0.00 | 0.00 | 94 | 1009.4 |
| 20260831030805 | 57 | 230 | 0.0 | 11.0 | 0.00 | 0.00 | 0.00 | 94 | 1009.3 |
| 20260831030305 | 57 | 235 | 0.0 | 11.0 | 0.00 | 0.00 | 0.00 | 94 | 1009.4 |
| 20260831025804 | 57 | 247 | 0.0 | 11.0 | 0.00 | 0.00 | 0.00 | 94 | 1009.3 |
| 20260831025306 | 57 | 182 | 0.0 | 11.0 | 0.00 | 0.00 | 0.00 | 94 | 1009.7 |
| 20260831024805 | 57 | 204 | 0.0 | 11.0 | 0.00 | 0.00 | 0.00 | 94 | 1009.3 |
| 20260831024304 | 57 | 241 | 0.0 | 11.0 | 0.00 | 0.00 | 0.00 | 94 | 1009.2 |
| 20260831023802 | 57 | 228 | 1.0 | 11.0 | 0.00 | 0.00 | 0.00 | 94 | 1009.4 |
| 20260831023301 | 57 | 175 | 0.0 | 11.0 | 0.00 | 0.00 | 0.00 | 94 | 1009.7 |
| 20260831022802 | 57 | 199 | 1.0 | 11.0 | 0.00 | 0.00 | 0.00 | 94 | 1009.7 |
| 20260831021745 | 57 | 219 | 0.0 | 11.0 | 0.00 | 0.00 | 0.00 | 94 | 1009.3 |
| 20260831021245 | 57 | 220 | 0.0 | 11.0 | 0.00 | 0.00 | 0.00 | 95 | 1009.4 |
| 20260831020744 | 57 | 222 | 0.0 | 11.0 | 0.00 | 0.00 | 0.00 | 95 | 1009.3 |
| 20260831020244 | 57 | 116 | 0.0 | 11.0 | 0.00 | 0.00 | 0.00 | 95 | 1009.6 |
| 20260831015743 | 57 | 92 | 0.0 | 11.0 | 0.00 | 0.00 | 0.00 | 95 | 1009.6 |
| 20260831015242 | 57 | 92 | 0.0 | 11.0 | 0.00 | 0.00 | 0.00 | 95 | 1009.5 |
| 20260831014742 | 57 | 92 | 0.0 | 11.0 | 0.00 | 0.00 | 0.00 | 95 | 1009.5 |
| 20260831014241 | 57 | 92 | 0.0 | 11.0 | 0.00 | 0.00 | 0.00 | 95 | 1009.5 |
| 20260831012710 | 57 | 245 | 0.0 | 11.0 | 0.00 | 0.00 | 0.00 | 95 | 1009.4 |
| 20260831012209 | 57 | 245 | 0.0 | 11.0 | 0.00 | 0.00 | 0.00 | 95 | 1009.3 |
| 20260831011708 | 57 | 245 | 0.0 | 11.0 | 0.00 | 0.00 | 0.00 | 95 | 1009.5 |
| 20260831011207 | 57 | 245 | 0.0 | 11.0 | 0.00 | 0.00 | 0.00 | 95 | 1009.4 |
| 20260831010706 | 57 | 245 | 0.0 | 11.0 | 0.00 | 0.00 | 0.00 | 95 | 1009.2 |
| 20260831010206 | 57 | 121 | 0.0 | 11.0 | 0.00 | 0.00 | 0.00 | 95 | 1009.5 |
| 20260831005706 | 57 | 223 | 0.0 | 11.0 | 0.00 | 0.00 | 0.00 | 95 | 1009.4 |
| 20260831004651 | 58 | 223 | 0.0 | 11.0 | 0.00 | 0.00 | 0.00 | 95 | 1009.2 |
| 20260831004151 | 57 | 224 | 0.0 | 11.0 | 0.00 | 0.00 | 0.00 | 95 | 1009.2 |
| 20260831003651 | 57 | 224 | 0.0 | 11.0 | 0.00 | 0.00 | 0.00 | 95 | 1009.3 |
| 20260831003151 | 57 | 225 | 0.0 | 11.0 | 0.00 | 0.00 | 0.00 | 95 | 1009.1 |
| 20260831002134 | 58 | 211 | 0.0 | 11.0 | 0.00 | 0.00 | 0.00 | 95 | 1009.4 |
| 20260831001633 | 58 | 215 | 0.0 | 11.0 | 0.00 | 0.00 | 0.00 | 95 | 1009.1 |
| 20260831001134 | 58 | 223 | 0.0 | 11.0 | 0.00 | 0.00 | 0.00 | 95 | 1009.0 |
| 20260831000633 | 58 | 223 | 0.0 | 11.0 | 0.00 | 0.00 | 0.00 | 95 | 1009.2 |
| 20260831000132 | 58 | 230 | 0.0 | 11.0 | 0.00 | 0.00 | 0.00 | 95 | 1009.2 |
| 20260830235632 | 58 | 230 | 0.0 | 11.0 | 0.00 | 0.00 | 0.00 | 95 | 1009.4 |
| 20260830235132 | 58 | 231 | 1.0 | 11.0 | 0.00 | 0.00 | 0.00 | 95 | 1009.3 |
| 20260830233602 | 58 | 215 | 0.0 | 11.0 | 0.00 | 0.00 | 0.00 | 95 | 1009.2 |
| 20260830233102 | 58 | 215 | 0.0 | 11.0 | 0.00 | 0.00 | 0.00 | 95 | 1009.2 |
| 20260830232602 | 58 | 241 | 0.0 | 11.0 | 0.00 | 0.00 | 0.00 | 95 | 1008.8 |
| 20260830232102 | 58 | 175 | 0.0 | 11.0 | 0.00 | 0.00 | 0.00 | 95 | 1009.5 |
| 20260830231602 | 58 | 206 | 1.0 | 11.0 | 0.00 | 0.00 | 0.00 | 95 | 1009.3 |
| 20260830231102 | 58 | 165 | 0.0 | 11.0 | 0.00 | 0.00 | 0.00 | 95 | 1009.5 |
| 20260830230602 | 58 | 179 | 0.0 | 11.0 | 0.00 | 0.00 | 0.00 | 95 | 1009.3 |
| 20260830225046 | 58 | 167 | 0.0 | 11.0 | 0.00 | 0.00 | 0.00 | 95 | 1009.1 |
| 20260830224546 | 58 | 191 | 1.0 | 11.0 | 0.00 | 0.00 | 0.00 | 95 | 1009.1 |
| 20260830224045 | 58 | 191 | 0.0 | 11.0 | 0.00 | 0.00 | 0.00 | 95 | 1009.0 |
| 20260830223545 | 58 | 225 | 0.0 | 11.0 | 0.00 | 0.00 | 0.00 | 95 | 1009.0 |
| 20260830223045 | 58 | 226 | 1.0 | 11.0 | 0.00 | 0.00 | 0.00 | 95 | 1008.9 |
| 20260830222544 | 58 | 191 | 1.0 | 11.0 | 0.00 | 0.00 | 0.00 | 95 | 1009.1 |
| 20260830221528 | 58 | 259 | 0.0 | 11.0 | 0.00 | 0.00 | 0.00 | 95 | 1008.8 |
| 20260830221028 | 58 | 137 | 0.0 | 11.0 | 0.00 | 0.00 | 0.00 | 95 | 1008.9 |
| 20260830220528 | 58 | 214 | 0.0 | 11.0 | 0.00 | 0.00 | 0.00 | 95 | 1008.6 |
| 20260830220027 | 58 | 200 | 0.0 | 11.0 | 0.00 | 0.00 | 0.00 | 95 | 1008.6 |
| 20260830215526 | 58 | 217 | 1.0 | 11.0 | 0.00 | 0.00 | 0.41 | 95 | 1008.6 |
| 20260830214510 | 59 | 221 | 0.0 | 11.0 | 0.00 | 0.00 | 0.41 | 96 | 1008.7 |
| 20260830213455 | 59 | 205 | 0.0 | 11.0 | 0.00 | 0.00 | 0.41 | 96 | 1008.3 |
| 20260830212954 | 59 | 245 | 0.0 | 11.0 | 0.00 | 0.00 | 0.41 | 96 | 1008.1 |
| 20260830212453 | 59 | 243 | 0.0 | 11.0 | 0.00 | 0.00 | 0.41 | 96 | 1008.6 |
| 20260830211952 | 59 | 263 | 0.0 | 11.0 | 0.00 | 0.00 | 0.41 | 96 | 1008.3 |
| 20260830211452 | 59 | 238 | 0.0 | 11.0 | 0.00 | 0.00 | 0.41 | 96 | 1008.2 |
| 20260830210435 | 59 | 237 | 0.0 | 11.0 | 0.00 | 0.00 | 0.41 | 96 | 1008.0 |
| 20260830205418 | 59 | 253 | 0.0 | 11.0 | 0.00 | 0.00 | 0.41 | 96 | 1008.2 |
| 20260830204918 | 59 | 223 | 1.0 | 11.0 | 0.00 | 0.00 | 0.41 | 96 | 1008.0 |
| 20260830204418 | 59 | 232 | 0.0 | 11.0 | 0.00 | 0.00 | 0.41 | 97 | 1008.0 |
| 20260830203918 | 59 | 182 | 0.0 | 11.0 | 0.00 | 0.00 | 0.41 | 96 | 1008.2 |
| 20260830202902 | 59 | 203 | 1.0 | 11.0 | 0.00 | 0.00 | 0.41 | 96 | 1008.1 |
| 20260830202402 | 59 | 205 | 0.0 | 11.0 | 0.00 | 0.00 | 0.41 | 96 | 1007.8 |
| 20260830201345 | 59 | 194 | 1.0 | 11.0 | 0.00 | 0.00 | 0.41 | 96 | 1008.1 |
| 20260830200844 | 59 | 217 | 0.0 | 11.0 | 0.00 | 0.00 | 0.41 | 96 | 1007.3 |
| 20260830200344 | 59 | 229 | 0.0 | 11.0 | 0.00 | 0.00 | 0.41 | 96 | 1007.3 |
| 20260830195844 | 59 | 228 | 0.0 | 11.0 | 0.00 | 0.00 | 0.41 | 95 | 1007.4 |
| 20260830195343 | 59 | 230 | 0.0 | 11.0 | 0.00 | 0.00 | 0.41 | 95 | 1007.4 |
| 20260830194842 | 59 | 228 | 0.0 | 11.0 | 0.00 | 0.00 | 0.41 | 95 | 1007.6 |
| 20260830194342 | 59 | 220 | 0.0 | 11.0 | 0.00 | 0.00 | 0.41 | 95 | 1007.3 |
| 20260830193841 | 59 | 246 | 1.0 | 11.0 | 0.00 | 0.00 | 0.41 | 94 | 1007.1 |
| 20260830193340 | 60 | 229 | 1.0 | 11.0 | 0.00 | 0.00 | 0.41 | 95 | 1007.2 |
| 20260830192839 | 60 | 205 | 1.0 | 11.0 | 0.00 | 0.00 | 0.41 | 95 | 1007.3 |
| 20260830192338 | 60 | 248 | 0.0 | 11.0 | 0.00 | 0.00 | 0.41 | 96 | 1006.9 |
| 20260830191321 | 60 | 219 | 1.0 | 11.0 | 0.00 | 0.00 | 0.41 | 96 | 1006.6 |
| 20260830190305 | 61 | 236 | 1.0 | 11.0 | 0.00 | 0.00 | 0.41 | 95 | 1006.7 |
| 20260830185805 | 61 | 241 | 2.0 | 11.0 | 0.00 | 0.00 | 0.41 | 95 | 1006.4 |
| 20260830185306 | 61 | 262 | 2.0 | 11.0 | 0.00 | 0.00 | 0.41 | 95 | 1006.3 |
| 20260830184804 | 61 | 229 | 2.0 | 11.0 | 0.00 | 0.00 | 0.41 | 95 | 1006.5 |
| 20260830184304 | 62 | 237 | 2.0 | 11.0 | 0.00 | 0.00 | 0.41 | 96 | 1006.4 |
| 20260830183803 | 62 | 232 | 2.0 | 11.0 | 0.00 | 0.00 | 0.41 | 96 | 1006.0 |
| 20260830183303 | 62 | 188 | 2.0 | 11.0 | 0.00 | 0.00 | 0.41 | 96 | 1005.8 |
| 20260830182803 | 62 | 221 | 2.0 | 11.0 | 0.00 | 0.00 | 0.41 | 97 | 1005.5 |
| 20260830182305 | 62 | 199 | 1.0 | 11.0 | 0.00 | 0.00 | 0.41 | 97 | 1005.2 |
| 20260830181802 | 62 | 210 | 1.0 | 11.0 | 0.00 | 0.00 | 0.41 | 96 | 1005.8 |
| 20260830181302 | 62 | 196 | 1.0 | 11.0 | 0.00 | 0.00 | 0.41 | 96 | 1005.6 |
| 20260830180802 | 62 | 192 | 1.0 | 11.0 | 0.00 | 0.00 | 0.41 | 96 | 1005.7 |
| 20260830180301 | 63 | 209 | 0.0 | 11.0 | 0.00 | 0.00 | 0.41 | 96 | 1005.6 |
| 20260830175800 | 63 | 201 | 0.0 | 11.0 | 0.00 | 0.00 | 0.41 | 96 | 1005.3 |
| 20260830175300 | 63 | 224 | 0.0 | 11.0 | 0.00 | 0.00 | 0.41 | 96 | 1005.2 |
| 20260830174800 | 63 | 220 | 1.0 | 11.0 | 0.00 | 0.00 | 0.41 | 96 | 1005.1 |
| 20260830174300 | 63 | 220 | 1.0 | 11.0 | 0.00 | 0.00 | 0.41 | 96 | 1005.3 |
| 20260830173759 | 63 | 210 | 0.0 | 11.0 | 0.00 | 0.00 | 0.41 | 96 | 1005.1 |
| 20260830173259 | 63 | 155 | 0.0 | 11.0 | 0.00 | 0.00 | 0.41 | 96 | 1005.1 |
| 20260830172759 | 63 | 176 | 0.0 | 11.0 | 0.00 | 0.00 | 0.41 | 96 | 1005.1 |
| 20260830171743 | 63 | 231 | 0.0 | 11.0 | 0.00 | 0.00 | 0.41 | 96 | 1004.8 |
| 20260830170728 | 63 | 205 | 0.0 | 11.0 | 0.00 | 0.00 | 0.41 | 96 | 1005.0 |
| 20260830170227 | 64 | 205 | 0.0 | 11.0 | 0.03 | 0.00 | 0.41 | 96 | 1004.7 |
| 20260830165727 | 64 | 205 | 0.0 | 11.0 | 0.02 | 0.00 | 0.40 | 96 | 1004.6 |
| 20260830165226 | 64 | 199 | 0.0 | 11.0 | 0.03 | 0.00 | 0.40 | 96 | 1004.7 |
| 20260830164725 | 64 | 194 | 0.0 | 11.0 | 0.03 | 0.00 | 0.40 | 96 | 1004.7 |
| 20260830164224 | 64 | 205 | 0.0 | 11.0 | 0.05 | 0.00 | 0.40 | 96 | 1005.0 |
| 20260830163723 | 64 | 205 | 0.0 | 11.0 | 0.06 | 0.00 | 0.40 | 96 | 1004.7 |
| 20260830163222 | 64 | 205 | 0.0 | 11.0 | 0.10 | 0.00 | 0.40 | 96 | 1004.5 |
| 20260830162722 | 64 | 205 | 0.0 | 11.0 | 0.12 | 0.00 | 0.40 | 96 | 1004.7 |
| 20260830161705 | 64 | 221 | 0.0 | 11.0 | 0.13 | 0.00 | 0.40 | 96 | 1004.7 |
| 20260830161205 | 64 | 259 | 0.0 | 11.0 | 0.15 | 0.00 | 0.40 | 96 | 1004.3 |
| 20260830160705 | 64 | 105 | 0.0 | 11.0 | 0.16 | 0.00 | 0.40 | 96 | 1004.5 |
| 20260830160204 | 64 | 105 | 1.0 | 11.0 | 0.15 | 0.00 | 0.38 | 96 | 1004.5 |
| 20260830155703 | 64 | 105 | 0.0 | 11.0 | 0.14 | 0.00 | 0.38 | 96 | 1004.2 |
| 20260830155203 | 64 | 105 | 0.0 | 11.0 | 0.13 | 0.00 | 0.37 | 96 | 1004.6 |
| 20260830154703 | 64 | 102 | 0.0 | 11.0 | 0.13 | 0.00 | 0.36 | 96 | 1004.6 |
| 20260830154202 | 64 | 102 | 0.0 | 11.0 | 0.13 | 0.00 | 0.36 | 95 | 1004.6 |
| 20260830153702 | 64 | 88 | 0.0 | 11.0 | 0.10 | 0.00 | 0.34 | 95 | 1004.7 |
| 20260830152646 | 64 | 88 | 0.0 | 11.0 | 0.04 | 0.00 | 0.27 | 95 | 1004.5 |
| 20260830152145 | 64 | 99 | 2.0 | 11.0 | 0.03 | 0.00 | 0.27 | 94 | 1004.5 |
| 20260830151644 | 64 | 104 | 0.0 | 11.0 | 0.03 | 0.00 | 0.27 | 94 | 1004.6 |
| 20260830151144 | 65 | 104 | 0.0 | 11.0 | 0.03 | 0.00 | 0.26 | 94 | 1004.9 |
| 20260830150643 | 65 | 103 | 0.0 | 11.0 | 0.00 | 0.00 | 0.24 | 94 | 1004.3 |
| 20260830145628 | 65 | 95 | 0.0 | 11.0 | 0.00 | 0.00 | 0.23 | 94 | 1004.5 |
| 20260830144611 | 65 | 112 | 0.0 | 11.0 | 0.00 | 0.00 | 0.23 | 94 | 1004.7 |
| 20260830144111 | 65 | 105 | 0.0 | 11.0 | 0.00 | 0.00 | 0.23 | 94 | 1004.8 |
| 20260830143610 | 65 | 104 | 0.0 | 11.0 | 0.00 | 0.00 | 0.23 | 94 | 1005.0 |
| 20260830142553 | 65 | 108 | 1.0 | 11.0 | 0.00 | 0.00 | 0.23 | 94 | 1004.8 |
| 20260830142053 | 65 | 110 | 1.0 | 11.0 | 0.00 | 0.00 | 0.23 | 94 | 1004.9 |
| 20260830141553 | 64 | 108 | 2.0 | 11.0 | 0.00 | 0.00 | 0.23 | 94 | 1005.0 |
| 20260830141053 | 65 | 100 | 0.0 | 11.0 | 0.00 | 0.00 | 0.23 | 95 | 1004.6 |
| 20260830140037 | 65 | 91 | 2.0 | 11.0 | 0.00 | 0.00 | 0.23 | 95 | 1004.8 |
| 20260830135536 | 65 | 107 | 0.0 | 11.0 | 0.00 | 0.00 | 0.23 | 96 | 1004.8 |
| 20260830135035 | 64 | 108 | 1.0 | 11.0 | 0.00 | 0.00 | 0.23 | 96 | 1004.7 |
| 20260830134535 | 64 | 97 | 2.0 | 11.0 | 0.00 | 0.00 | 0.23 | 96 | 1004.9 |
| 20260830134035 | 64 | 105 | 1.0 | 11.0 | 0.00 | 0.00 | 0.23 | 96 | 1005.1 |
| 20260830133534 | 64 | 136 | 0.0 | 11.0 | 0.00 | 0.00 | 0.23 | 96 | 1004.9 |
| 20260830133034 | 64 | 90 | 1.0 | 11.0 | 0.00 | 0.00 | 0.23 | 96 | 1005.1 |
| 20260830132534 | 64 | 90 | 1.0 | 11.0 | 0.00 | 0.00 | 0.23 | 96 | 1004.7 |
| 20260830132034 | 64 | 113 | 1.0 | 11.0 | 0.00 | 0.00 | 0.23 | 96 | 1004.7 |
| 20260830131534 | 64 | 109 | 1.0 | 11.0 | 0.00 | 0.00 | 0.23 | 96 | 1004.8 |
| 20260830131033 | 64 | 115 | 3.0 | 11.0 | 0.00 | 0.00 | 0.23 | 96 | 1005.0 |
| 20260830130533 | 63 | 146 | 1.0 | 11.0 | 0.00 | 0.00 | 0.23 | 96 | 1004.8 |
| 20260830125517 | 63 | 88 | 3.0 | 11.0 | 0.00 | 0.00 | 0.23 | 96 | 1004.7 |
| 20260830125017 | 63 | 111 | 1.0 | 11.0 | 0.00 | 0.00 | 0.23 | 96 | 1005.1 |
| 20260830124517 | 63 | 91 | 1.0 | 11.0 | 0.00 | 0.00 | 0.23 | 96 | 1005.0 |
| 20260830124017 | 63 | 102 | 1.0 | 11.0 | 0.00 | 0.00 | 0.23 | 96 | 1005.0 |
| 20260830123517 | 63 | 112 | 3.0 | 11.0 | 0.00 | 0.00 | 0.23 | 96 | 1005.1 |
| 20260830123016 | 63 | 108 | 0.0 | 11.0 | 0.00 | 0.00 | 0.23 | 97 | 1005.3 |
| 20260830122516 | 63 | 96 | 3.0 | 11.0 | 0.00 | 0.00 | 0.23 | 96 | 1005.3 |
| 20260830122015 | 63 | 125 | 2.0 | 11.0 | 0.00 | 0.00 | 0.23 | 96 | 1005.4 |
| 20260830121514 | 63 | 108 | 1.0 | 11.0 | 0.00 | 0.00 | 0.23 | 97 | 1005.2 |
| 20260830115943 | 62 | 113 | 3.0 | 11.0 | 0.00 | 0.00 | 0.23 | 97 | 1005.6 |
| 20260830115443 | 62 | 107 | 2.0 | 11.0 | 0.00 | 0.00 | 0.23 | 97 | 1005.6 |
| 20260830114942 | 62 | 118 | 2.0 | 11.0 | 0.00 | 0.00 | 0.23 | 97 | 1005.2 |
| 20260830113926 | 62 | 111 | 2.0 | 11.0 | 0.00 | 0.00 | 0.23 | 97 | 1005.6 |
| 20260830113426 | 62 | 106 | 2.0 | 11.0 | 0.00 | 0.00 | 0.23 | 97 | 1005.4 |
| 20260830112925 | 62 | 99 | 2.0 | 11.0 | 0.00 | 0.00 | 0.23 | 97 | 1005.3 |
| 20260830112425 | 62 | 123 | 0.0 | 11.0 | 0.00 | 0.00 | 0.23 | 97 | 1005.5 |
| 20260830111924 | 62 | 107 | 3.0 | 11.0 | 0.00 | 0.00 | 0.23 | 97 | 1005.9 |
| 20260830111423 | 62 | 121 | 1.0 | 11.0 | 0.00 | 0.00 | 0.23 | 97 | 1005.7 |
| 20260830110923 | 62 | 109 | 2.0 | 11.0 | 0.00 | 0.00 | 0.23 | 97 | 1005.4 |
| 20260830110422 | 62 | 108 | 3.0 | 11.0 | 0.00 | 0.00 | 0.23 | 97 | 1005.6 |
| 20260830105407 | 62 | 80 | 1.0 | 11.0 | 0.02 | 0.00 | 0.23 | 97 | 1005.8 |
| 20260830104907 | 62 | 123 | 1.0 | 11.0 | 0.02 | 0.00 | 0.23 | 97 | 1005.7 |
| 20260830103853 | 62 | 104 | 3.0 | 11.0 | 0.02 | 0.00 | 0.23 | 97 | 1005.7 |
| 20260830103352 | 62 | 82 | 2.0 | 11.0 | 0.02 | 0.00 | 0.23 | 97 | 1005.8 |
| 20260830102852 | 62 | 93 | 1.0 | 11.0 | 0.02 | 0.00 | 0.23 | 97 | 1006.1 |
| 20260830101837 | 62 | 123 | 1.0 | 11.0 | 0.01 | 0.00 | 0.22 | 97 | 1005.8 |
| 20260830101337 | 61 | 107 | 0.0 | 11.0 | 0.02 | 0.00 | 0.22 | 97 | 1005.8 |
| 20260830100836 | 61 | 98 | 1.0 | 11.0 | 0.02 | 0.00 | 0.22 | 97 | 1006.1 |
| 20260830100335 | 61 | 135 | 0.0 | 11.0 | 0.02 | 0.00 | 0.22 | 97 | 1006.2 |
| 20260830095835 | 61 | 106 | 1.0 | 11.0 | 0.02 | 0.00 | 0.22 | 97 | 1005.9 |
| 20260830095335 | 61 | 103 | 1.0 | 11.0 | 0.00 | 0.00 | 0.20 | 97 | 1006.1 |
| 20260830094834 | 61 | 100 | 1.0 | 11.0 | 0.00 | 0.00 | 0.20 | 97 | 1006.2 |
| 20260830094334 | 61 | 113 | 2.0 | 11.0 | 0.00 | 0.00 | 0.20 | 97 | 1006.2 |
| 20260830093834 | 61 | 96 | 0.0 | 11.0 | 0.00 | 0.00 | 0.20 | 97 | 1006.2 |
| 20260830093334 | 61 | 127 | 1.0 | 11.0 | 0.00 | 0.00 | 0.20 | 97 | 1006.2 |
| 20260830092317 | 61 | 120 | 1.0 | 11.0 | 0.00 | 0.00 | 0.20 | 98 | 1006.4 |
| 20260830091817 | 61 | 124 | 0.0 | 11.0 | 0.00 | 0.00 | 0.20 | 98 | 1006.4 |
| 20260830091317 | 60 | 129 | 0.0 | 11.0 | 0.00 | 0.00 | 0.20 | 98 | 1006.6 |
| 20260830090301 | 60 | 55 | 0.0 | 11.0 | 0.00 | 0.00 | 0.20 | 98 | 1006.4 |
| 20260830085800 | 60 | 49 | 0.0 | 11.0 | 0.00 | 0.00 | 0.20 | 98 | 1006.2 |
| 20260830085300 | 60 | 93 | 0.0 | 11.0 | 0.00 | 0.00 | 0.20 | 97 | 1006.7 |
| 20260830084244 | 60 | 107 | 0.0 | 11.0 | 0.00 | 0.00 | 0.20 | 98 | 1006.7 |
| 20260830083743 | 60 | 103 | 1.0 | 11.0 | 0.00 | 0.00 | 0.20 | 97 | 1006.6 |
| 20260830082726 | 59 | 72 | 1.0 | 11.0 | 0.00 | 0.00 | 0.20 | 97 | 1006.8 |
| 20260830082226 | 59 | 72 | 0.0 | 11.0 | 0.00 | 0.00 | 0.20 | 98 | 1006.8 |
| 20260830081726 | 59 | 104 | 0.0 | 11.0 | 0.00 | 0.00 | 0.20 | 98 | 1006.9 |
| 20260830080710 | 59 | 106 | 1.0 | 11.0 | 0.00 | 0.00 | 0.20 | 97 | 1006.9 |
| 20260830080209 | 59 | 79 | 0.0 | 11.0 | 0.00 | 0.00 | 0.20 | 98 | 1006.9 |
| 20260830075708 | 59 | 93 | 0.0 | 11.0 | 0.00 | 0.00 | 0.20 | 98 | 1006.8 |
| 20260830075207 | 59 | 76 | 0.0 | 11.0 | 0.00 | 0.00 | 0.20 | 97 | 1007.0 |
| 20260830074708 | 59 | 74 | 0.0 | 11.0 | 0.00 | 0.00 | 0.20 | 98 | 1007.1 |
| 20260830073652 | 59 | 102 | 2.0 | 11.0 | 0.02 | 0.00 | 0.20 | 97 | 1007.2 |
| 20260830073151 | 59 | 124 | 0.0 | 11.0 | 0.03 | 0.00 | 0.20 | 98 | 1007.2 |
| 20260830072651 | 59 | 124 | 0.0 | 11.0 | 0.03 | 0.00 | 0.20 | 98 | 1006.8 |
| 20260830072150 | 59 | 125 | 1.0 | 11.0 | 0.03 | 0.00 | 0.20 | 97 | 1007.0 |
| 20260830071650 | 59 | 206 | 0.0 | 11.0 | 0.04 | 0.00 | 0.20 | 98 | 1007.1 |
| 20260830071150 | 59 | 221 | 0.0 | 11.0 | 0.06 | 0.00 | 0.20 | 98 | 1006.9 |
| 20260830070650 | 59 | 221 | 0.0 | 11.0 | 0.06 | 0.00 | 0.20 | 98 | 1007.1 |
| 20260830070149 | 59 | 221 | 0.0 | 11.0 | 0.07 | 0.00 | 0.20 | 98 | 1007.1 |
| 20260830065647 | 59 | 221 | 0.0 | 11.0 | 0.10 | 0.00 | 0.20 | 98 | 1007.1 |
| 20260830064115 | 59 | 221 | 0.0 | 11.0 | 0.12 | 0.00 | 0.19 | 97 | 1007.1 |
| 20260830063614 | 59 | 221 | 0.0 | 11.0 | 0.12 | 0.00 | 0.17 | 97 | 1007.1 |
| 20260830063114 | 59 | 221 | 0.0 | 11.0 | 0.13 | 0.00 | 0.17 | 97 | 1007.4 |
| 20260830062614 | 59 | 221 | 0.0 | 11.0 | 0.13 | 0.00 | 0.17 | 97 | 1007.3 |
| 20260830062112 | 59 | 221 | 0.0 | 11.0 | 0.13 | 0.00 | 0.16 | 97 | 1007.2 |
| 20260830061611 | 59 | 221 | 0.0 | 11.0 | 0.13 | 0.00 | 0.15 | 97 | 1007.5 |
| 20260830060557 | 59 | 130 | 1.0 | 11.0 | 0.13 | 0.00 | 0.13 | 97 | 1007.5 |
| 20260830060055 | 59 | 115 | 2.0 | 11.0 | 0.11 | 0.00 | 0.12 | 97 | 1007.5 |
| 20260830055037 | 59 | 121 | 1.0 | 11.0 | 0.09 | 0.00 | 0.09 | 98 | 1007.5 |
| 20260830054536 | 59 | 105 | 2.0 | 11.0 | 0.08 | 0.00 | 0.08 | 98 | 1007.4 |
| 20260830054036 | 59 | 67 | 1.0 | 11.0 | 0.06 | 0.00 | 0.06 | 98 | 1007.5 |
| 20260830053535 | 59 | 105 | 1.0 | 11.0 | 0.05 | 0.00 | 0.05 | 98 | 1007.7 |
| 20260830053034 | 59 | 112 | 1.0 | 11.0 | 0.03 | 0.00 | 0.03 | 98 | 1007.7 |
| 20260830052533 | 59 | 108 | 1.0 | 11.0 | 0.03 | 0.00 | 0.03 | 97 | 1007.7 |
| 20260830052032 | 59 | 114 | 2.0 | 11.0 | 0.03 | 0.00 | 0.03 | 97 | 1007.4 |
| 20260830051532 | 59 | 123 | 1.0 | 11.0 | 0.02 | 0.00 | 0.02 | 97 | 1007.8 |